Miscellaneous Local Product
Issued by NWS Hastings, NE

Home | Current Version | Previous Version | Graphics & Text | Print | Product List | Glossary On
Versions: 1 2 3 4 5 6 7 8 9 10 11 12 13 14 15 16 17 18 19 20 21 22 23 24 25 26 27 28 29 30 31 32 33 34 35 36 37 38 39 40 41 42 43 44 45 46 47 48 49 50
117
AXUS43 KGID 202102
MISGRI

GID CWA HOURLY WEATHER ROUNDUP
NATIONAL WEATHER SERVICE HASTINGS NE
300 PM CST SAT JAN 20 2018

NOTE: "FAIR" INDICATES FEW OR NO CLOUDS BELOW 12,000 FEET WITH NO
SIGNIFICANT WEATHER AND/OR OBSTRUCTIONS TO VISIBILITY.

...SOUTH CENTRAL NEBRASKA...

CITY           SKY/WX    TMP DP  RH WIND       PRES   REMARKS
GRAND ISLAND   SUNNY     47  36  65 NE12      29.78S
KEARNEY        SUNNY     46  36  68 NE14      29.76F
HASTINGS       SUNNY     48  32  53 E12       29.77R
ORD            SUNNY     50  30  46 NE15      29.79S
YORK           SUNNY     48  32  53 E10       29.78S
AURORA         SUNNY     49  33  53 NE9       29.77S
LEXINGTON      MOSUNNY   49  33  53 NE15      29.75S
HOLDREGE       SUNNY     45  35  67 NE15      29.75S
HEBRON         CLOUDY    45  40  85 NE6       29.78S

...NEBRASKA PANHANDLE...

CITY           SKY/WX    TMP DP  RH WIND       PRES   REMARKS
CHADRON        CLOUDY    36  31  82 NE9       29.88S WCI  29
ALLIANCE       CLOUDY    33  31  92 N12       29.83R WCI  24
SCOTTSBLUFF    CLOUDY    35  31  85 N10       29.83F WCI  27
SIDNEY         CLOUDY    36  29  75 NE12      29.78F WCI  28

...WESTERN AND NORTH CENTRAL NEBRASKA...

CITY           SKY/WX    TMP DP  RH WIND       PRES   REMARKS
VALENTINE      CLOUDY    42  33  70 NE9       29.86F
AINSWORTH      CLOUDY    40  33  75 N9        29.85F WCI  34
ONEILL         PTSUNNY   43  33  68 N9        29.85S
BROKEN BOW     MOSUNNY   46  32  58 N12       29.77F
IMPERIAL       PTSUNNY   49  30  48 NE16      29.74F
NORTH PLATTE   MOSUNNY   48  31  51 NE16      29.76F
MCCOOK         MOSUNNY   50  32  50 NE13      29.74S

...EASTERN NEBRASKA...

CITY           SKY/WX    TMP DP  RH WIND       PRES   REMARKS
NORFOLK        SUNNY     68  32  26 NE9       29.80S
SO SIOUX CITY  SUNNY     56  31  38 NE9       29.83R
TEKAMAH        SUNNY     52  33  48 SE7       29.82S
COLUMBUS       SUNNY     53  32  44 NE15      29.79F
ALBION         SUNNY     52  31  45 NE14      29.79F
OMAHA EPPLEY   MOSUNNY   47  35  63 S5        29.83R
OFFUTT AFB     PTSUNNY   47  39  75 CALM      29.82S
MILLARD        SUNNY     50  37  61 SE3       29.82S
LINCOLN        SUNNY     50  39  66 VRB3      29.80F
NEBRASKA CITY  CLOUDY    45  42  89 E5        29.82S
BEATRICE       CLOUDY    44  40  85 NE7       29.79S
FALLS CITY     CLOUDY    49  43  80 SE5       29.81F

...NORTHERN KANSAS...

CITY           SKY/WX    TMP DP  RH WIND       PRES   REMARKS
GOODLAND       SUNNY     50  28  42 N12       29.71F
HILL CITY      SUNNY     51  26  37 E8        29.72F
NORTON         CLEAR     48  25  40 N9        29.73S
PHILLIPSBURG   SUNNY     52  28  40 NE9       29.74R
SMITH CENTER   SUNNY     48  32  53 E6        29.76R
BELOIT         SUNNY     55  39  54 CALM      29.73S
HAYS           SUNNY     52  21  29 CALM      29.71F
RUSSELL        SUNNY     60  37  42 S9        29.69F
CONCORDIA      SUNNY     53  41  63 E8        29.74F
SALINA         SUNNY     60  44  55 S12       29.73F
TOPEKA         CLOUDY    52  46  80 S6        29.81F



USA.gov is the U.S. government's official web portal to all federal, state and local government web resources and services.